QPF
0.00 0.00 0.00 0.00 0.00 0.00 0.00 0.00 0.00 0.00 0.00 0.00 0.00 0.00 0.00 0.00 0.00 0.00 0.00 0.00 0.00 0.00 0.00 0.00 0.00 0.00 0.00 0.00 0.00 0.00 0.00 0.00 0.00 0.01 0.06 0.02 0.02 0.03 0.00 0.00 0.00 0.00 0.00 0.00 0.00
0.00 0.00 0.00 0.00 0.00 0.00 0.00 0.00 0.00 0.00 0.00 0.00 0.00 0.00 0.00 0.00 0.00 0.00 0.00 0.00 0.00 0.00 0.00 0.00 0.00 0.00 0.00 0.00 0.01 0.00 0.00 0.00 0.00 0.00 0.02 0.01 0.00 0.01 0.00 0.00 0.00 0.00 0.00 0.00 0.00
0.00 0.00 0.00 0.00 0.00 0.00 0.00 0.00 0.00 0.00 0.00 0.00 0.00 0.00 0.00 0.00 0.00 0.00 0.00 0.00 0.00 0.00 0.00 0.00 0.00 0.00 0.00 0.00 0.00 0.01 0.00 0.00 0.00 0.00 0.00 0.00 0.00 0.00 0.00 0.00 0.00 0.00 0.00 0.00 0.00
0.00 0.00 0.00 0.00 0.00 0.00 0.00 0.00 0.00 0.00 0.00 0.00 0.00 0.00 0.00 0.00 0.00 0.00 0.00 0.00 0.00 0.00 0.00 0.00 0.00 0.00 0.00 0.00 0.00 0.00 0.00 0.00 0.00 0.00 0.00 0.00 0.01 0.02 0.00 0.00 0.00 0.00 0.00 0.00 0.00
0.00 0.00 0.00 0.00 0.00 0.00 0.00 0.00 0.00 0.00 0.00 0.00 0.00 0.00 0.00 0.00 0.00 0.00 0.00 0.00 0.00 0.00 0.00 0.00 0.00 0.00 0.00 0.00 0.00 0.00 0.00 0.00 0.00 0.00 0.00 0.00 0.00 0.00 0.00 0.00 0.00 0.00 0.00 0.00 0.00
0.00 0.00 0.00 0.00 0.00 0.00 0.00 0.00 0.00 0.00 0.00 0.00 0.00 0.00 0.00 0.00 0.00 0.00 0.00 0.00 0.00 0.00 0.00 0.00 0.00 0.00 0.00 0.00 0.00 0.00 0.00 0.00 0.00 0.00 0.00 0.00 0.00 0.00 0.00 0.00 0.00 0.00 0.00 0.00 0.00
0.00 0.00 0.00 0.00 0.00 0.00 0.00 0.00 0.00 0.00 0.00 0.00 0.00 0.00 0.00 0.00 0.00 0.00 0.00 0.00 0.00 0.00 0.00 0.00 0.00 0.00 0.00 0.00 0.00 0.00 0.00 0.00 0.00 0.00 0.00 0.00 0.00 0.00 0.00 0.00 0.00 0.00 0.00 0.00 0.00
0.00 0.00 0.00 0.00 0.00 0.00 0.00 0.00 0.00 0.00 0.00 0.00 0.00 0.00 0.00 0.00 0.00 0.00 0.00 0.00 0.00 0.00 0.00 0.00 0.00 0.00 0.00 0.00 0.00 0.00 0.00 0.00 0.00 0.00 0.00 0.00 0.00 0.00 0.00 0.00 0.00 0.00 0.00 0.00 0.00
0.00 0.00 0.00 0.00 0.00 0.00 0.00 0.00 0.00 0.00 0.00 0.00 0.00 0.00 0.00 0.00 0.00 0.00 0.00 0.00 0.00 0.00 0.00 0.00 0.00 0.00 0.00 0.00 0.00 0.00 0.00 0.00 0.00 0.00 0.00 0.00 0.00 0.00 0.00 0.00 0.00 0.00 0.00 0.00 0.00
0.00 0.00 0.00 0.00 0.00 0.00 0.00 0.00 0.00 0.00 0.00 0.00 0.00 0.00 0.00 0.00 0.00 0.00 0.00 0.00 0.00 0.00 0.00 0.00 0.00 0.00 0.00 0.00 0.00 0.00 0.00 0.00 0.00 0.00 0.00 0.00 0.00 0.00 0.00 0.00 0.00 0.00 0.00 0.00 0.00
0.00 0.00 0.00 0.00 0.00 0.00 0.00 0.00 0.00 0.00 0.00 0.00 0.00 0.00 0.00 0.00 0.00 0.00 0.00 0.00 0.00 0.00 0.00 0.00 0.00 0.00 0.00 0.00 0.00 0.00 0.00 0.00 0.00 0.00 0.00 0.00 0.00 0.00 0.00 0.00 0.00 0.00 0.00 0.00 0.00
0.00 0.00 0.00 0.00 0.00 0.00 0.00 0.00 0.00 0.00 0.00 0.00 0.00 0.00 0.00 0.00 0.00 0.00 0.00 0.00 0.00 0.00 0.00 0.00 0.00 0.00 0.00 0.00 0.00 0.00 0.00 0.00 0.00 0.00 0.00 0.00 0.00 0.00 0.00 0.00 0.00 0.00 0.00 0.00 0.00
0.00 0.00 0.00 0.00 0.00 0.00 0.00 0.00 0.00 0.00 0.00 0.00 0.00 0.00 0.00 0.00 0.00 0.00 0.00 0.00 0.00 0.00 0.00 0.00 0.00 0.00 0.00 0.00 0.00 0.00 0.00 0.00 0.00 0.00 0.00 0.00 0.00 0.00 0.00 0.00 0.00 0.00 0.00 0.00 0.00
0.00 0.00 0.00 0.00 0.00 0.00 0.00 0.00 0.00 0.00 0.00 0.00 0.00 0.00 0.00 0.00 0.00 0.00 0.00 0.00 0.00 0.00 0.00 0.00 0.00 0.00 0.00 0.00 0.00 0.00 0.00 0.00 0.00 0.00 0.00 0.00 0.00 0.00 0.00 0.00 0.00 0.00 0.00 0.00 0.00
0.00 0.00 0.00 0.00 0.00 0.00 0.00 0.00 0.00 0.00 0.00 0.00 0.00 0.00 0.00 0.00 0.00 0.00 0.00 0.00 0.00 0.00 0.00 0.00 0.00 0.00 0.00 0.00 0.00 0.00 0.00 0.00 0.00 0.00 0.00 0.00 0.00 0.00 0.00 0.00 0.00 0.00 0.00 0.00 0.00
0.00 0.00 0.00 0.00 0.00 0.00 0.00 0.00 0.00 0.00 0.00 0.00 0.00 0.00 0.00 0.00 0.00 0.00 0.00 0.00 0.00 0.00 0.00 0.00 0.00 0.00 0.00 0.00 0.00 0.00 0.00 0.00 0.00 0.00 0.00 0.00 0.00 0.00 0.00 0.00 0.00 0.00 0.00 0.00 0.00
0.00 0.00 0.00 0.00 0.00 0.00 0.00 0.00 0.00 0.00 0.00 0.00 0.00 0.00 0.00 0.00 0.00 0.00 0.00 0.00 0.00 0.00 0.00 0.00 0.00 0.00 0.00 0.00 0.00 0.00 0.00 0.00 0.00 0.00 0.00 0.00 0.00 0.00 0.00 0.00 0.00 0.00 0.00 0.00 0.00
0.00 0.00 0.00 0.00 0.00 0.00 0.00 0.00 0.00 0.00 0.00 0.00 0.00 0.00 0.00 0.00 0.00 0.00 0.00 0.00 0.00 0.00 0.00 0.00 0.00 0.00 0.00 0.00 0.00 0.00 0.00 0.00 0.00 0.00 0.00 0.00 0.00 0.00 0.00 0.00 0.00 0.00 0.00 0.00 0.00
0.00 0.00 0.00 0.00 0.00 0.00 0.00 0.00 0.00 0.00 0.00 0.00 0.00 0.00 0.00 0.00 0.00 0.00 0.00 0.00 0.00 0.00 0.00 0.00 0.00 0.00 0.00 0.00 0.00 0.00 0.00 0.00 0.00 0.00 0.00 0.00 0.00 0.00 0.00 0.00 0.00 0.00 0.00 0.00 0.00
0.00 0.00 0.00 0.00 0.00 0.00 0.00 0.00 0.00 0.00 0.00 0.00 0.00 0.00 0.00 0.00 0.00 0.00 0.00 0.00 0.00 0.00 0.00 0.00 0.00 0.00 0.00 0.00 0.00 0.00 0.00 0.00 0.00 0.00 0.00 0.00 0.00 0.00 0.00 0.00 0.00 0.00 0.00 0.00 0.00
0.00 0.00 0.00 0.00 0.00 0.00 0.00 0.00 0.00 0.00 0.00 0.00 0.00 0.00 0.00 0.00 0.00 0.00 0.00 0.00 0.00 0.00 0.00 0.00 0.00 0.00 0.00 0.00 0.00 0.00 0.00 0.00 0.00 0.00 0.00 0.00 0.00 0.00 0.00 0.00 0.00 0.00 0.00 0.00 0.00
0.00 0.00 0.00 0.00 0.00 0.00 0.00 0.00 0.00 0.00 0.00 0.00 0.00 0.00 0.00 0.00 0.00 0.00 0.00 0.00 0.00 0.00 0.00 0.00 0.00 0.00 0.00 0.00 0.00 0.00 0.00 0.00 0.00 0.00 0.00 0.00 0.00 0.00 0.00 0.00 0.00 0.00 0.00 0.00 0.00
0.00 0.00 0.00 0.00 0.00 0.00 0.00 0.00 0.00 0.00 0.00 0.00 0.00 0.00 0.00 0.00 0.00 0.00 0.00 0.00 0.00 0.00 0.00 0.00 0.00 0.00 0.00 0.00 0.00 0.00 0.00 0.00 0.00 0.00 0.00 0.00 0.00 0.00 0.00 0.00 0.00 0.00 0.00 0.00 0.00
0.00 0.00 0.00 0.00 0.00 0.00 0.00 0.00 0.00 0.00 0.00 0.00 0.00 0.00 0.00 0.00 0.00 0.00 0.00 0.00 0.00 0.00 0.00 0.00 0.00 0.00 0.00 0.00 0.00 0.00 0.00 0.00 0.00 0.00 0.00 0.00 0.00 0.00 0.00 0.00 0.00 0.00 0.00 0.00 0.00
0.00 0.00 0.00 0.00 0.00 0.00 0.00 0.00 0.00 0.00 0.00 0.00 0.00 0.00 0.00 0.01 0.00 0.00 0.00 0.00 0.00 0.00 0.00 0.00 0.00 0.00 0.00 0.00 0.00 0.00 0.00 0.00 0.00 0.00 0.00 0.00 0.00 0.00 0.00 0.00 0.00 0.00 0.00 0.00 0.00
0.00 0.00 0.00 0.00 0.00 0.00 0.00 0.00 0.00 0.00 0.00 0.00 0.00 0.01 0.01 0.03 0.01 0.00 0.00 0.00 0.00 0.00 0.00 0.00 0.00 0.00 0.00 0.00 0.00 0.00 0.00 0.00 0.00 0.00 0.00 0.00 0.00 0.00 0.00 0.00 0.00 0.00 0.00 0.00 0.00
0.00 0.00 0.00 0.00 0.00 0.00 0.00 0.03 0.04 0.07 0.04 0.03 0.06 0.03 0.01 0.00 0.00 0.00 0.00 0.00 0.00 0.00 0.00 0.00 0.00 0.00 0.00 0.00 0.00 0.00 0.00 0.00 0.00 0.00 0.00 0.00 0.00 0.00 0.00 0.00 0.00 0.00 0.00 0.00 0.00
MSLP
1017.96 1017.41 1016.92 1016.43 1015.88 1015.33 1014.74 1014.13 1013.51 1013.09 1012.87 1012.52 1012.24 1012.09 1011.92 1011.79 1011.72 1011.69 1010.87 1007.91 1007.71 1007.93 1008.40 1008.85 1009.39 1009.59 1009.97 1010.22 1009.96 1010.23 1010.62 1010.16 1009.18 1008.61 1007.69 1007.71 1007.69 1007.85 1008.27 1009.29 1009.97 1010.63 1011.11 1012.23 1013.25
1017.94 1017.32 1016.73 1016.20 1015.64 1015.05 1014.46 1013.96 1013.41 1012.84 1012.54 1012.42 1012.05 1011.81 1011.68 1011.61 1011.49 1010.46 1007.21 1006.89 1007.01 1007.39 1008.24 1008.59 1009.38 1009.71 1010.15 1010.07 1009.87 1010.01 1010.19 1008.85 1007.94 1007.48 1007.35 1007.27 1007.32 1007.93 1008.55 1009.49 1010.48 1010.91 1011.69 1012.77 1013.50
1017.90 1017.22 1016.59 1015.92 1015.23 1014.61 1014.09 1013.61 1013.17 1012.73 1012.25 1012.01 1011.90 1011.65 1011.36 1011.46 1010.88 1007.40 1005.80 1005.99 1006.63 1007.15 1007.61 1008.22 1009.05 1009.55 1010.01 1009.95 1009.74 1009.62 1009.14 1008.11 1007.28 1006.69 1006.96 1006.99 1007.23 1007.65 1008.44 1009.43 1010.17 1010.76 1011.88 1012.68 1013.51
1017.82 1017.11 1016.43 1015.67 1014.92 1014.20 1013.58 1013.21 1012.95 1012.37 1011.97 1011.63 1011.55 1011.44 1011.29 1011.33 1009.42 1006.36 1005.44 1005.40 1006.37 1007.16 1007.67 1008.15 1008.94 1009.42 1009.72 1009.49 1009.15 1009.05 1008.19 1007.93 1006.89 1006.38 1006.53 1006.80 1007.04 1007.49 1008.06 1008.50 1008.95 1010.47 1011.06 1012.03 1013.01
1017.68 1016.90 1016.14 1015.52 1014.61 1013.81 1013.09 1012.88 1012.32 1011.90 1011.53 1011.27 1011.18 1011.09 1011.22 1010.49 1008.11 1006.64 1005.57 1005.87 1006.62 1007.10 1007.40 1007.64 1008.36 1008.94 1009.15 1008.92 1008.68 1008.45 1007.75 1007.37 1006.71 1006.54 1006.55 1006.61 1006.95 1007.36 1008.13 1008.48 1009.21 1010.69 1012.00 1012.65 1013.11
1017.53 1016.74 1015.85 1015.11 1014.39 1013.49 1012.75 1012.42 1011.95 1011.32 1010.88 1010.72 1010.85 1010.95 1010.99 1009.55 1006.95 1006.89 1006.39 1006.41 1006.61 1007.05 1007.31 1007.51 1007.90 1007.99 1008.43 1008.45 1008.23 1007.45 1007.50 1007.20 1006.67 1006.49 1006.35 1006.53 1006.63 1007.23 1008.39 1008.84 1009.70 1010.77 1012.03 1012.79 1013.09
1017.51 1016.65 1015.70 1014.85 1014.05 1013.09 1012.21 1012.05 1011.49 1010.97 1010.44 1010.44 1010.70 1010.85 1010.53 1008.40 1007.24 1007.14 1006.87 1006.98 1006.90 1006.95 1007.23 1007.42 1007.51 1007.74 1008.09 1008.27 1007.70 1007.36 1007.35 1006.89 1006.39 1006.07 1006.05 1006.15 1006.93 1007.31 1008.29 1009.10 1009.93 1010.94 1012.11 1012.78 1013.20
1017.43 1016.63 1015.55 1014.78 1013.81 1012.82 1011.84 1011.68 1011.06 1010.72 1010.77 1010.82 1010.66 1010.59 1009.69 1007.48 1007.13 1007.00 1006.67 1006.81 1007.03 1007.51 1007.61 1007.63 1007.73 1008.05 1008.15 1008.00 1007.62 1007.71 1007.71 1007.15 1005.93 1005.48 1005.70 1005.95 1006.77 1007.57 1008.31 1009.09 1010.14 1010.97 1011.79 1012.55 1012.82
1017.28 1016.50 1015.27 1014.43 1013.51 1012.38 1011.39 1011.02 1010.56 1010.72 1010.93 1010.89 1010.94 1010.59 1008.33 1006.84 1007.02 1006.40 1006.35 1006.43 1006.98 1007.75 1007.98 1007.67 1008.22 1008.54 1008.47 1008.57 1008.63 1008.35 1007.80 1007.28 1006.20 1005.35 1005.58 1005.94 1006.67 1007.70 1008.64 1009.24 1010.13 1010.92 1011.56 1012.21 1012.78
1016.85 1016.04 1015.14 1014.20 1013.27 1012.13 1011.30 1010.66 1010.47 1010.89 1011.16 1010.95 1010.81 1010.64 1007.97 1007.43 1006.79 1006.36 1006.14 1006.25 1006.88 1007.84 1008.64 1008.46 1008.72 1008.89 1009.07 1009.08 1008.57 1008.47 1007.93 1007.12 1006.19 1005.49 1005.63 1006.13 1006.85 1007.97 1008.85 1009.36 1009.51 1010.30 1011.11 1011.57 1011.90
1016.83 1015.87 1014.82 1013.80 1012.96 1012.14 1011.30 1011.28 1011.58 1011.34 1011.11 1011.39 1010.89 1010.24 1008.58 1007.67 1006.59 1006.32 1006.10 1006.46 1006.87 1007.79 1008.69 1008.72 1009.09 1008.01 1007.51 1008.28 1008.25 1008.03 1007.65 1006.97 1005.92 1005.37 1005.72 1006.07 1006.88 1007.65 1008.60 1009.41 1009.71 1009.82 1010.33 1010.71 1010.89
1016.64 1015.91 1015.04 1014.17 1013.20 1012.19 1011.54 1012.35 1012.87 1013.03 1012.15 1010.66 1010.19 1009.73 1008.58 1008.16 1007.56 1006.64 1006.33 1006.67 1007.23 1007.83 1008.34 1009.00 1008.03 1007.88 1008.52 1008.66 1008.57 1008.15 1007.60 1006.96 1006.14 1005.28 1005.64 1005.98 1006.51 1007.21 1007.89 1007.80 1007.98 1008.64 1009.39 1010.00 1010.83
1016.77 1015.85 1014.86 1013.63 1012.82 1012.42 1012.57 1012.61 1012.59 1012.81 1012.77 1010.80 1009.78 1009.13 1008.32 1008.33 1007.87 1007.55 1007.11 1006.85 1007.09 1007.86 1008.08 1008.05 1007.47 1007.71 1008.11 1008.31 1008.57 1008.18 1007.73 1007.12 1006.45 1005.91 1005.55 1005.87 1006.24 1007.07 1007.49 1007.79 1008.37 1008.50 1008.65 1009.04 1009.19
1016.38 1015.38 1014.32 1013.03 1013.02 1013.59 1012.79 1012.66 1012.59 1012.89 1012.74 1010.85 1009.54 1008.77 1008.35 1008.10 1008.27 1007.99 1007.66 1007.51 1007.08 1007.34 1008.01 1007.85 1007.04 1007.07 1007.14 1007.46 1007.84 1007.86 1007.50 1007.39 1007.23 1006.97 1006.44 1005.92 1006.20 1005.91 1006.27 1006.82 1007.23 1007.43 1007.71 1008.00 1008.57
1015.96 1015.02 1014.48 1013.59 1014.17 1013.64 1012.74 1012.48 1012.43 1012.99 1012.39 1010.75 1009.72 1008.86 1009.14 1009.42 1009.64 1008.58 1008.39 1007.88 1008.12 1007.67 1007.57 1006.94 1006.46 1006.66 1006.77 1006.30 1006.88 1006.63 1007.19 1007.71 1007.81 1007.71 1007.37 1006.47 1006.48 1005.19 1005.27 1006.03 1005.96 1006.18 1006.41 1006.78 1007.31
1016.25 1015.31 1014.89 1014.34 1014.23 1013.11 1012.47 1012.52 1012.63 1013.27 1012.00 1010.93 1010.24 1010.09 1010.38 1010.43 1010.45 1010.13 1009.71 1009.36 1009.36 1009.00 1007.83 1006.95 1006.11 1005.95 1005.49 1005.87 1006.27 1006.40 1007.13 1007.63 1008.05 1008.38 1007.45 1006.38 1006.41 1004.45 1004.49 1003.77 1004.60 1005.04 1005.17 1005.54 1006.07
1016.16 1015.01 1014.57 1014.21 1013.83 1012.60 1012.60 1012.75 1013.49 1013.17 1012.15 1011.90 1011.51 1011.34 1011.57 1011.77 1011.63 1011.52 1011.70 1011.64 1011.89 1011.14 1009.91 1008.43 1006.50 1005.80 1005.56 1005.83 1005.88 1006.51 1007.27 1008.45 1009.07 1008.62 1006.07 1005.73 1005.78 1003.58 1002.60 1002.24 1002.34 1002.88 1003.41 1003.95 1004.67
1015.83 1014.53 1014.24 1013.67 1013.02 1012.85 1012.76 1013.38 1013.94 1013.47 1012.80 1012.36 1012.27 1012.22 1012.54 1012.65 1012.76 1012.63 1012.67 1013.15 1013.17 1013.11 1012.70 1011.18 1008.29 1006.43 1005.62 1005.42 1005.59 1005.95 1006.45 1007.21 1007.81 1007.49 1006.26 1005.69 1003.99 1001.99 1001.43 1001.13 1001.19 1001.51 1001.84 1002.90 1003.95
1015.41 1014.70 1014.23 1013.33 1012.69 1012.63 1013.58 1014.31 1014.51 1014.14 1013.76 1013.16 1012.93 1012.98 1013.33 1013.36 1013.47 1013.51 1013.68 1013.87 1014.08 1013.85 1013.92 1013.16 1010.68 1008.29 1006.91 1006.16 1005.79 1005.74 1005.59 1006.05 1007.06 1007.28 1006.51 1004.58 1003.36 1001.79 1000.65 1000.69 1000.59 1000.66 1001.40 1001.93 1002.57
1016.52 1015.94 1014.47 1013.13 1012.67 1012.87 1014.31 1015.07 1014.85 1014.34 1013.84 1013.51 1013.54 1013.67 1014.00 1014.19 1014.21 1014.21 1014.11 1014.17 1014.30 1014.31 1014.21 1014.26 1013.07 1009.63 1007.96 1006.53 1005.34 1005.35 1005.24 1006.08 1006.32 1006.73 1006.02 1004.13 1002.67 1001.38 1000.55 1000.41 1000.17 1000.31 1000.63 1000.89 1001.27
1016.84 1016.12 1014.27 1013.26 1012.92 1014.47 1016.05 1016.35 1015.49 1014.63 1014.09 1013.98 1013.86 1014.11 1014.39 1014.76 1014.76 1014.70 1014.37 1014.48 1014.50 1014.54 1014.52 1014.72 1014.37 1011.18 1009.33 1007.27 1005.88 1005.65 1005.92 1005.28 1005.38 1005.65 1004.95 1004.22 1001.79 1000.31 999.69 999.49 999.52 999.52 999.52 999.91 1000.35
1018.15 1017.33 1014.86 1013.72 1015.36 1017.53 1017.97 1017.47 1016.37 1015.20 1014.67 1014.34 1014.18 1014.26 1014.53 1014.91 1015.14 1014.95 1014.54 1014.35 1014.46 1014.59 1014.93 1015.23 1014.87 1013.33 1010.57 1007.80 1007.29 1007.27 1006.66 1006.25 1005.54 1005.33 1004.80 1003.85 1001.47 999.59 998.88 998.87 998.59 998.62 998.75 998.85 999.11
1019.59 1018.73 1016.05 1015.46 1018.06 1019.13 1018.87 1017.97 1016.89 1015.77 1015.34 1015.14 1015.04 1014.99 1014.97 1015.21 1015.58 1015.26 1014.77 1014.60 1014.55 1014.71 1015.06 1015.30 1015.15 1014.25 1010.98 1008.97 1008.11 1007.92 1007.89 1007.85 1006.51 1004.74 1003.97 1003.36 1001.60 999.52 999.27 998.93 998.58 998.85 998.96 998.46 998.35
1019.95 1019.70 1019.03 1018.99 1019.94 1019.98 1019.51 1018.57 1017.29 1016.11 1015.95 1015.69 1015.57 1015.52 1015.78 1015.82 1015.77 1015.60 1015.27 1014.92 1014.82 1014.89 1015.11 1015.56 1015.72 1014.85 1012.82 1011.02 1010.51 1009.31 1008.54 1008.57 1008.36 1007.09 1004.70 1002.32 1001.55 1000.11 999.46 999.46 998.97 998.39 998.60 998.93 998.93
1020.55 1021.31 1021.09 1020.86 1020.53 1020.19 1019.95 1019.10 1018.05 1017.17 1016.69 1016.35 1015.98 1016.02 1016.50 1016.81 1016.41 1016.01 1015.52 1015.23 1015.21 1015.31 1015.85 1016.38 1016.16 1014.96 1013.22 1011.99 1011.21 1009.80 1008.79 1008.36 1008.52 1007.13 1005.90 1002.93 1001.53 1000.66 999.75 999.21 999.53 999.14 999.10 998.95 998.70
1021.02 1021.31 1021.03 1020.78 1020.47 1020.09 1019.69 1019.07 1018.41 1017.85 1017.77 1017.07 1016.71 1016.51 1016.87 1016.87 1016.73 1016.48 1016.12 1015.82 1015.75 1016.29 1016.71 1016.97 1016.31 1015.09 1013.09 1011.45 1010.44 1009.02 1007.70 1007.43 1007.05 1006.13 1005.65 1004.09 1002.59 1001.15 1000.50 1000.01 1000.39 1000.60 1000.03 999.75 998.89
1020.79 1020.78 1020.73 1020.44 1019.99 1019.78 1019.44 1018.89 1018.35 1018.08 1017.51 1017.11 1016.89 1016.54 1016.23 1015.75 1015.76 1015.83 1015.82 1015.96 1015.92 1016.18 1016.86 1017.25 1016.82 1015.53 1013.07 1010.99 1009.19 1007.70 1005.72 1005.91 1006.27 1006.29 1005.36 1004.13 1002.71 1001.78 1001.83 1001.64 1001.67 1001.19 1000.67 999.97 999.14
Thickness
5708 5713 5716 5719 5723 5727 5731 5736 5740 5743 5744 5747 5749 5749 5751 5752 5752 5754 5761 5789 5791 5790 5786 5784 5779 5778 5777 5771 5778 5776 5749 5743 5759 5763 5777 5790 5788 5800 5802 5784 5785 5782 5778 5775 5771
5704 5709 5713 5717 5721 5726 5730 5733 5738 5741 5744 5745 5748 5750 5750 5750 5750 5757 5790 5793 5793 5791 5782 5776 5767 5771 5762 5766 5773 5765 5746 5761 5782 5785 5781 5792 5795 5791 5786 5778 5771 5772 5775 5772 5771
5701 5705 5710 5714 5719 5724 5728 5732 5736 5739 5743 5746 5747 5749 5750 5749 5751 5777 5798 5798 5792 5790 5786 5781 5775 5770 5761 5766 5768 5766 5755 5779 5789 5798 5794 5790 5791 5798 5784 5771 5772 5768 5768 5767 5768
5697 5702 5707 5712 5718 5723 5727 5730 5733 5737 5741 5744 5746 5747 5748 5746 5761 5788 5798 5800 5791 5787 5782 5777 5768 5759 5754 5756 5771 5759 5778 5780 5794 5801 5796 5789 5796 5789 5790 5788 5793 5780 5779 5772 5768
5695 5700 5705 5709 5716 5722 5727 5728 5733 5737 5739 5741 5743 5745 5743 5747 5760 5782 5792 5791 5785 5781 5776 5772 5765 5758 5752 5759 5769 5765 5776 5785 5793 5795 5798 5800 5790 5789 5786 5793 5794 5780 5772 5769 5766
5693 5698 5704 5708 5713 5720 5725 5728 5731 5737 5740 5741 5740 5740 5739 5741 5773 5777 5781 5782 5779 5774 5772 5771 5765 5766 5755 5758 5762 5775 5777 5781 5788 5791 5796 5792 5795 5796 5785 5790 5783 5776 5767 5767 5766
5688 5694 5700 5706 5711 5718 5724 5726 5729 5733 5737 5738 5736 5735 5734 5746 5764 5769 5772 5771 5773 5771 5765 5767 5767 5762 5760 5758 5770 5773 5765 5779 5785 5792 5791 5800 5783 5785 5788 5787 5779 5773 5767 5765 5765
5683 5688 5696 5700 5706 5714 5720 5721 5724 5726 5727 5728 5730 5730 5729 5758 5760 5762 5767 5766 5767 5763 5762 5764 5764 5757 5755 5764 5761 5756 5758 5748 5782 5794 5798 5797 5767 5785 5789 5783 5774 5772 5769 5765 5765
5679 5682 5691 5697 5703 5710 5717 5718 5720 5716 5717 5718 5718 5719 5734 5755 5750 5760 5762 5758 5755 5751 5751 5758 5751 5742 5748 5736 5727 5731 5732 5746 5764 5793 5795 5791 5777 5783 5785 5778 5773 5771 5769 5766 5763
5675 5678 5683 5689 5697 5705 5709 5712 5710 5706 5706 5708 5710 5709 5731 5728 5740 5748 5755 5753 5744 5736 5729 5733 5727 5721 5718 5716 5709 5720 5735 5749 5756 5781 5786 5779 5779 5776 5777 5775 5777 5776 5771 5769 5768
5668 5672 5677 5683 5689 5694 5698 5695 5687 5687 5690 5690 5696 5699 5711 5720 5732 5735 5743 5737 5734 5723 5705 5717 5706 5722 5741 5737 5742 5743 5742 5748 5767 5783 5776 5776 5773 5776 5775 5772 5773 5776 5774 5774 5775
5661 5662 5666 5669 5675 5681 5683 5670 5661 5659 5657 5680 5685 5689 5701 5704 5699 5713 5728 5716 5713 5702 5705 5697 5705 5734 5726 5724 5726 5729 5734 5740 5762 5779 5771 5772 5773 5776 5778 5783 5784 5782 5779 5777 5774
5650 5652 5656 5662 5665 5664 5660 5656 5652 5649 5639 5653 5671 5676 5682 5686 5685 5685 5701 5704 5701 5692 5693 5691 5714 5724 5717 5713 5709 5714 5717 5732 5749 5761 5772 5770 5759 5761 5776 5778 5777 5783 5785 5785 5785
5639 5642 5647 5654 5649 5637 5643 5640 5636 5631 5611 5635 5649 5658 5663 5665 5664 5678 5682 5685 5689 5684 5685 5687 5714 5710 5710 5708 5709 5693 5732 5737 5736 5734 5720 5763 5720 5761 5773 5773 5779 5783 5787 5789 5787
5631 5633 5633 5635 5624 5626 5630 5628 5625 5617 5591 5626 5628 5647 5641 5636 5636 5649 5662 5663 5662 5673 5676 5684 5700 5696 5695 5716 5716 5722 5728 5720 5724 5718 5724 5733 5724 5750 5774 5766 5782 5790 5792 5796 5794
5617 5619 5618 5618 5614 5619 5621 5619 5614 5594 5589 5609 5617 5612 5612 5615 5617 5623 5627 5639 5643 5645 5664 5677 5702 5701 5708 5715 5714 5731 5718 5710 5706 5697 5682 5725 5725 5740 5755 5788 5791 5797 5799 5802 5802
5605 5610 5610 5609 5608 5614 5613 5609 5587 5581 5605 5596 5596 5597 5595 5593 5596 5597 5598 5596 5591 5607 5612 5642 5673 5695 5699 5693 5704 5704 5688 5655 5650 5654 5687 5730 5710 5746 5783 5802 5812 5809 5811 5813 5812
5596 5604 5603 5603 5605 5605 5604 5591 5584 5590 5587 5590 5587 5584 5577 5579 5581 5581 5581 5576 5581 5580 5580 5589 5635 5674 5685 5688 5687 5690 5687 5656 5637 5655 5696 5713 5695 5739 5800 5812 5821 5824 5825 5816 5812
5591 5593 5594 5597 5599 5598 5588 5563 5567 5569 5569 5570 5570 5563 5560 5561 5565 5563 5561 5560 5565 5568 5565 5564 5599 5641 5658 5674 5686 5680 5676 5703 5673 5678 5676 5715 5725 5767 5792 5796 5810 5820 5819 5817 5816
5572 5570 5580 5591 5594 5588 5570 5562 5560 5563 5560 5557 5552 5551 5542 5540 5543 5543 5545 5550 5551 5556 5559 5558 5562 5612 5637 5661 5681 5678 5703 5669 5660 5659 5656 5689 5710 5735 5773 5785 5800 5810 5817 5822 5826
5559 5567 5578 5584 5584 5564 5543 5537 5547 5551 5547 5541 5539 5532 5528 5523 5523 5524 5530 5532 5536 5539 5545 5546 5546 5590 5613 5636 5667 5674 5668 5680 5692 5677 5677 5673 5714 5759 5781 5797 5806 5814 5828 5830 5830
5539 5555 5569 5575 5547 5514 5514 5515 5528 5532 5529 5526 5525 5522 5517 5509 5506 5509 5512 5518 5521 5528 5529 5529 5537 5553 5586 5630 5645 5644 5654 5668 5674 5672 5680 5678 5712 5776 5786 5798 5813 5821 5829 5839 5842
5528 5526 5553 5556 5514 5499 5499 5507 5513 5517 5513 5508 5503 5503 5503 5498 5491 5491 5500 5504 5509 5512 5511 5518 5525 5524 5587 5616 5626 5629 5631 5632 5647 5676 5684 5687 5700 5770 5779 5792 5803 5808 5820 5835 5844
5526 5524 5522 5515 5496 5497 5491 5490 5496 5506 5498 5494 5490 5488 5480 5478 5478 5479 5481 5489 5495 5498 5507 5503 5495 5518 5554 5581 5583 5603 5620 5625 5622 5631 5682 5701 5721 5753 5772 5778 5794 5810 5816 5821 5828
5516 5507 5500 5494 5493 5494 5481 5478 5478 5479 5477 5477 5478 5477 5460 5449 5456 5459 5465 5476 5484 5489 5482 5475 5478 5501 5537 5556 5567 5590 5608 5618 5615 5637 5643 5703 5717 5740 5762 5778 5782 5800 5806 5812 5821
5513 5504 5496 5491 5496 5494 5487 5476 5473 5469 5458 5459 5460 5463 5447 5442 5445 5447 5452 5456 5461 5462 5460 5458 5476 5502 5526 5554 5567 5589 5617 5626 5636 5650 5655 5680 5706 5737 5749 5761 5764 5771 5786 5797 5811
5511 5509 5504 5508 5503 5494 5486 5475 5465 5454 5456 5454 5451 5448 5449 5451 5448 5446 5447 5444 5451 5447 5444 5449 5464 5493 5519 5553 5571 5595 5626 5639 5639 5638 5660 5687 5718 5728 5733 5738 5746 5760 5776 5791 5805